www.pogodaiklimat.ru

Погода и климат >> Архив погоды >> Доминиканская Республика >> Ла Романа аэропорт


ПОГОДА в Ла Романа аэропорту

  • Прогноз погоды в Ла Романа аэропорту
  • Монитор погоды в Ла Романа аэропорту

АРХИВ ПОГОДЫ в Ла Романа аэропорту

Время (UTC), дата Ветер
(напр.,м/с)
 
Видим.   Явления Облачность Т
(С)
Тd
(С)
f
(%)
Тe
(С)
Тes
(С)
Комфортность P
(гПа)
Po
(гПа)
Тmin
(С)
Tmax
(С)
R
(мм)
R24
(мм)
S
(см)
03 16.09 штиль 0 16 км 8/4 480 м
[Cu med, cong Ac trans Ci]
+26.2 +25.9 98 +39 +39 очень
душно
1013.5 1002.7
12 16.09 штиль 0 16 км 5/4 480 м
[Cu med, cong Ci]
+27.2 +26.1 94 +41 +43 опасность
перегрева
1013.2 1002.4 +23.2 +34.0
15 16.09 В 3 16 км 5/5 540 м
[Cb cap Ci fib]
+31.5 +25.3 70 +46 +53 опасность
перегрева
1013.4 1002.8
18 16.09 ЮВ 6 8000 м осадки на расстоянии 5/5 600 м
[Cb cap]
+34.6 +24.2 55 +47 +50 опасность
перегрева
1011.8 1001.3 +23.2 +34.8
21 16.09 СВ 6 8000 м осадки на расстоянии 6/6 540 м
[Cb cap]
+32.0 +24.7 65 +45 +45 опасность
перегрева
1011.4 1000.8
00 17.09 штиль 0 16 км в посл. час гроза 5/5 480 м
[Cb cap]
+27.0 +25.6 92 +40 +40 очень
душно
1011.9 1001.1 +23.2 +34.9
03 17.09 нст 2 16 км в посл. час гроза 4/4 480 м
[Cb cap Ci fib]
+24.5 +23.8 96 +33 +33 очень
душно
1013.7 1002.8
12 17.09 штиль 0 8000 м осадки на расстоянии 5/5 480 м
[Cb cap Ci ing]
+24.8 +24.0 95 +34 +36 очень
душно
1011.9 1001.0 +22.5 +34.9
15 17.09 ЮВ 4 16 км 9/8 480 м
[Cb cap Cs]
+29.5 +24.6 75 +42 +44 опасность
перегрева
1012.8 1002.1
18 17.09 ЮВ 4 8000 м осадки на расстоянии 9/8 480 м
[Cb cap Cs]
+28.7 +25.1 81 +42 +44 опасность
перегрева
1011.2 1000.5 +22.5 +33.6
21 17.09 ЮВ 3 16 км {дождь} 9/5 540 м
[Cb cap As op Cs]
+28.2 +24.3 79 +39 +40 очень
душно
1010.6 999.9 3
00 18.09 штиль 0 16 км {дождь} 9/5 540 м
[Cb cap As op Cs]
+26.0 +23.1 84 +35 +35 очень
душно
1011.2 1000.4 +22.5 +33.6
03 18.09 нст 2 8000 м слаб. дождь 9/8 420 м
[Cb cap As op]
+22.0 +21.7 98 +29 +29 очень
душно
1012.6 1001.6 2
12 18.09 штиль 0 16 км в посл. час дождь 9/6 420 м
[Cb cap As op Cs]
+23.2 +22.9 98 +32 +33 очень
душно
1010.5 999.6 +21.6 +33.6 3
15 18.09 штиль 0 8000 м гроза, ливневой дождь 10/8 420 м
[Cb cap As op]
+24.2 +23.6 96 +33 +34 очень
душно
1011.0 1000.1 1
18 18.09 штиль 0 8000 м слаб. дождь {гроза} 10/9 420 м
[Cb cap As op]
+27.3 +25.0 87 +39 +40 очень
душно
1009.4 998.7 +21.6 +28.0 2
21 18.09 ЮВ 5 8000 м слаб. дождь 10/9 420 м
[Cb cap As op]
+25.5 +24.8 96 +36 +36 очень
душно
1008.6 997.8 0.0
00 19.09 штиль 0 16 км в посл. час дождь 9/6 420 м
[Cb cap As op Cs]
+22.8 +22.5 98 +31 +31 очень
душно
1009.0 998.1 +21.6 +28.0 4
03 19.09 штиль 0 16 км 8/5 420 м
[Cb cap As op Cs]
+22.9 +22.8 99 +31 +31 очень
душно
1010.0 999.1
12 19.09 штиль 0 16 км 9/6 480 м
[Cb cap As op Cs]
+23.8 +22.7 94 +31 +32 очень
душно
1008.8 997.9 +22.4 +28.0 0.4
15 19.09 В 2 16 км слаб. дождь 9/8 480 м
[Cb cap As op]
+23.1 +23.0 99 +32 +34 очень
душно
1010.5 999.6 3
18 19.09 ЮВ 3 16 км слаб. дождь 9/8 480 м
[Cb cap As op Cs]
+26.2 +24.6 91 +37 +39 очень
душно
1008.9 998.1 +22.4 +26.5 11
21 19.09 штиль 0 8000 м слаб. дождь 10/8 420 м
[Cb cap As op]
+24.1 +23.7 98 +33 +33 очень
душно
1008.0 997.2 8
00 20.09 штиль 0 8000 м слаб. дождь 10/8 420 м
[Cb cap As op Cs]
+22.7 +22.4 98 +31 +31 очень
душно
1009.2 998.3 +22.4 +26.5 5
03 20.09 штиль 0 8000 м слаб. дождь 9/8 420 м
[Cb cap As op Cs]
+22.0 +21.9 99 +29 +29 очень
душно
1010.0 999.1 10
12 20.09 штиль 0 16 км 9/8 420 м
[Cb cap As op Cs]
+24.0 +23.7 98 +33 +33 очень
душно
1011.0 1000.1 +21.2 +26.5 6
15 20.09 ЮВ 2 8000 м гроза, ливневой дождь 9/8 420 м
[Cb cap As op]
+24.2 +23.9 98 +33 +35 очень
душно
1012.6 1001.7 13
18 20.09 ЮВ 3 8000 м гроза с градом {морось} 9/8 420 м
[Cb cap As op Cs]
+28.3 +25.5 85 +42 +44 опасность
перегрева
1010.8 1000.1 +21.2 +29.5 6
00 21.09 штиль 0 8000 м гроза, ливневой дождь 9/8 480 м
[Cb cap As op Cs]
+24.3 +23.9 98 +33 +33 очень
душно
1012.0 1001.1 +21.2 +29.6 11
03 21.09 штиль 0 8000 м гроза, ливневой дождь 9/5 480 м
[Cb cap As op Cs]
+23.5 +23.1 98 +31 +31 очень
душно
1012.5 1001.6
12 21.09 штиль 0 16 км 8/4 480 м
[Cu med, cong Cs]
+24.0 +23.1 95 +32 +34 очень
душно
1012.5 1001.6 +22.2 +29.6 6
15 21.09 ЮВ 2 16 км 9/4 540 м
[Cu med, cong Ac trans Ci]
+29.0 +25.8 83 +43 +49 опасность
перегрева
1013.5 1002.8
18 21.09 Ю 5 16 км 9/4 600 м
[Cu med, cong Ac trans Cs]
+31.2 +26.3 75 +47 +50 опасность
перегрева
1011.7 1001.1 +22.2 +32.5
00 22.09 штиль 0 16 км 8/4 480 м
[Cu med, cong Ac trans Cs]
+26.4 +24.8 91 +38 +38 очень
душно
1012.0 1001.2 +22.2 +32.5
03 22.09 штиль 0 16 км 6/4 480 м
[Cu med, cong Cs]
+24.4 +24.1 98 +34 +34 очень
душно
1013.0 1002.1
12 22.09 штиль 0 16 км 8/4 480 м
[Cu med, cong Ac trans Ci]
+26.0 +25.4 97 +38 +39 очень
душно
1013.0 1002.2 +23.0 +32.5
15 22.09 ЮВ 4 16 км 8/5 540 м
[Cu med, cong Ac trans Ci]
+29.8 +26.9 84 +46 +50 опасность
перегрева
1014.2 1003.5
18 22.09 штиль 0 16 км 8/5 600 м
[Cu med, cong Ac trans Ci]
+31.8 +27.7 79 +51 +60 опасность
перегрева
1011.2 1000.6 +23.0 +32.7
21 22.09 В 5 16 км 6/4 600 м
[Cu med, cong Ac trans Ci]
+30.4 +24.9 72 +43 +44 опасность
перегрева
1010.4 999.8

 

Местоположение метеостанции Ла Романа аэропорт (Доминиканская Республика): широта 18.45 долгота -68.92 высота над уровнем моря 94 м.

В архиве по умолчанию представлена погода в Ла Романа аэропорту за последнюю неделю. Архивные данные за месяц целиком и за предыдущие месяцы, начиная с января 2011 года, Вы можете получить, выбрав интересующий диапазон дат из раскрывающегося списка и нажав кнопку "Ввод!".


*Определитесь, кто Вы:
робот инопланетянин человек

Внимание! Время в таблицах - всемирное. Для получения местного времени необходимо прибавить поправку, которая равна -4 ч.

Смотрите также архив погоды в соседних городах и на ближайших метеорологических станциях:

Погода в Пунта-Кане (Доминиканская Республика) (61 км)
Погода в Лас Америкас (Доминиканская Республика) (78 км)
Погода в Сабана де ла Мар (Доминиканская Республика) (82 км)
Погода в Санто-Доминго (Доминиканская Республика) (101 км)
Погода в Сантьяго (Доминиканская Республика) (218 км)
Погода в Пуэрто-Плате (Доминиканская Республика) (224 км)
Погода в Бараоне (Доминиканская Республика) (232 км)
Погода в Шарлотта-Амалии (Виргинские Острова) (418 км)
Погода в Пунта-де-Маиси (Куба) (584 км)
Погода в Принцессы Юлианы аэропорту (Нидерландские Антилы) (616 км)

Пояснения к столбцам:

Ветер - указаны скорость ветра в м/с - средняя за 10 мин, порывы в срок и между сроками (в фигурных скобках) и направление, откуда дует ветер: С - северный, СВ - северо-восточный, В - восточный, ЮВ - юго-восточный, Ю - южный, ЮЗ - юго-западный, З - западный, СЗ - северо-западный.
Видимость - горизонтальная дальность видимости в метрах или километрах. При видимости от 1 до 10 км при отсутствии осадков обычно наблюдается дымка, при ухудшении видимости до 1 км и менее - туман. В сухую погоду видимость может ухудшаться дымом, пылью или мглою.
Явления - указаны атмосферные явления, наблюдавшиеся в срок или в последний час перед сроком; фигурными скобками обозначены явления, наблюдавшиеся между сроками (за 1-3 часа до срока); квадратными скобками обозначены град или гололедные отложения с указанием их диаметра в мм.
Облачность - указаны через наклонную черту общая и нижняя облачность в баллах и высота нижней границы облаков в метрах; квадратными скобками обозначены формы облаков: Ci - перистые, Cs - перисто-слоистые, Cc - перисто-кучевые, Ac - высококучевые, As - высокослоистые, Sc - слоисто-кучевые, Ns - слоисто-дождевые, Cu - кучевые, Cb - кучево-дождевые. Подробнее классификацию облаков см. в Атласе облаков (PDF).
T - Температура воздуха - температура, измеренная на высоте 2 м над землей.
Td - Температура точки росы - температура, при понижении до которой содержащийся в воздухе водяной пар достигнет насыщения.
f - Относительная влажность воздуха - влажноcть воздуха, измеренная на высоте 2 м над землей.
Te - Эффективная температура - температура, которую ощущает одетый по сезону человек в тени. Характеристика душности погоды. При расчете учитывается влияние влажности воздуха и скорости ветра на теплоощущения человека.
Tes - Эффективная температура на солнце - температура, которую ощущает человек, с поправкой на солнечный нагрев. Характеристика знойности погоды. Зависит от высоты солнца над горизонтом, облачности и скорости ветра. Ночью, в пасмурную погоду, а также при ветре 12 м/с и более поправка равна нулю.
P - Атмосферное давление - приведенное к уровню моря атмосферное давление.
Po - Атмосферное давление - измеренное на уровне метеостанции атмосферное давление.
Tmin - Минимальная температура - минимум температуры воздуха на высоте 2 м над землей.
Tmax - Максимальная температура - максимум температуры воздуха на высоте 2 м над землей.
R - Количество осадков - Количество выпавших осадков за период времени, мм. При наведении курсора мыши на число - период времени, за который выпало указанное количество осадков.
R24 - Количество осадков - Количество выпавших осадков за 24 часа, мм.
S - Снежный покров - Высота снежного покрова, см. При наведении курсора мыши на число - состояние снежного покрова и степень покрытия местности в баллах.